ECHOSTAR 21

Last updated on Thu Nov 21 2024 00:02:43 GMT+0000 (Coordinated Universal Time)

1 42749U 17032A 24324.58260976 .00000066 00000+0 00000+0 0 9997 2 42749 2.2789 324.8225 0002703 261.9465 52.3620 1.00273506 27334
UTC large
Height (km)
Speed (km/s)
/
Latitude / Longitude
Inclination (degrees)
Orbital Period (minutes)
Azimuth
Elevation
Range (km)
Doppler Factor

Next 0 passes for location: London (51.5072 / 0.1276)

Sorry there are no passes over London.